This demonstration page uses our WeatherBlox Daily Observations layout. Learn more.

Left ArrowRight Arrow

Hourly Observations for January 18, 2017

Temp ( °F °C ) Dew Point ( °F °C ) Humidity (%) Winds ( mph kmh ) Pressure ( in mb ) Visibility ( mi km ) Precip ( " mm )
12:59 am 00:59 Cloudy 59 15 54 12.2 83 83 SW 10 17 29.96 1015 9 14 0.00 0.00
1:59 am 01:59 Cloudy 60 15.6 55 12.8 84 84 SW 10 17 29.92 1013 9 14 0.00 0.00
2:59 am 02:59 Cloudy 60 15.6 55 12.8 84 84 WSW 8 13 29.93 1013 10 16 0.00 0.00
3:59 am 03:59 Cloudy 59 15 54 12.2 83 83 WSW 6 9 29.92 1013 9 14 0.00 0.00
4:59 am 04:59 Cloudy 59 15 55 12.8 87 87 SW 8 13 29.90 1013 8 13 0.00 0.00
5:59 am 05:59 Cloudy 60 15.6 55 12.8 84 84 SW 8 13 29.88 1012 10 16 0.00 0.00
6:59 am 06:59 Mostly Cloudy 61 16.1 55 12.8 81 81 WSW 10 17 29.89 1012 10 16 0.00 0.00
7:59 am 07:59 Mostly Cloudy 58 14.4 55 12.8 90 90 W 3 6 29.88 1012 7 11 0.00 0.00
8:59 am 08:59 Mostly Cloudy 59 15 55 12.8 87 87 W 5 7 29.90 1013 7 11 0.00 0.00
9:59 am 09:59 Mostly Cloudy with Mist and Fog 55 12.8 51 10.6 87 87 NNE 8 13 29.93 1014 4 6 0.00 0.00
10:06 am 10:06 Mostly Cloudy with Mist and Fog 55 12.8 51 10.6 87 87 NNE 9 15 29.94 1014 4 6 0.00 0.00
10:57 am 10:57 Cloudy with Mist and Fog 54 12 50 10 88 88 NE 8 13 29.94 1014 4 6 0.00 0.00
10:59 am 10:59 Cloudy with Mist and Fog 54 12.2 51 10.6 90 90 NE 8 13 29.93 1014 4 6 0.00 0.00
11:13 am 11:13 Cloudy with Mist and Fog 54 12.2 50 10 87 87 NNE 6 9 29.94 1014 5 8 0.00 0.00
11:59 am 11:59 Cloudy 53 11.7 47 8.3 80 80 NNE 12 19 29.93 1014 7 11 0.00 0.00
12:50 pm 12:50 Cloudy with Thunderstorms 50 10 45 7.2 83 83 NNE 14 22 29.94 1014 9 14 0.07 1.78
12:59 pm 12:59 Cloudy with Thunderstorms 50 10 45 7.2 83 83 N 12 19 29.94 1014 8 13 0.07 1.78
1:23 pm 13:23 Cloudy 50 10 45 7.2 83 83 NNE 14 22 29.94 1014 9 14 0.00 0.00
1:59 pm 13:59 Mostly Cloudy 51 10.6 46 7.8 83 83 NNE 9 15 29.95 1014 9 14 0.00 0.00
2:59 pm 14:59 Partly Cloudy 52 11.1 46 7.8 80 80 NE 8 13 29.96 1015 10 16 0.00 0.00
3:59 pm 15:59 Partly Cloudy 52 11.1 46 7.8 80 80 NE 9 15 29.98 1015 10 16 0.00 0.00
4:59 pm 16:59 Partly Cloudy 50 10 44 6.7 80 80 NE 6 9 29.99 1016 9 14 0.00 0.00
5:59 pm 17:59 Mostly Clear 47 8.3 43 6.1 86 86 N 5 7 30.02 1017 10 16 0.00 0.00
6:59 pm 18:59 Clear 46 7.8 43 6.1 89 89 Calm 30.04 1017 8 13 0.00 0.00
7:59 pm 19:59 Clear 44 6.7 41 5 89 89 Calm 30.05 1018 7 11 0.00 0.00
8:59 pm 20:59 Clear 44 6.7 41 5 89 89 Calm 30.05 1018 10 16 0.00 0.00
9:59 pm 21:59 Clear 44 6.7 40 4.4 85 85 N 3 6 30.06 1018 10 16 0.00 0.00
10:59 pm 22:59 Clear 43 6.1 40 4.4 89 89 NNW 3 6 30.05 1018 10 16 0.00 0.00
11:59 pm 23:59 Clear 43 6.1 39 3.9 86 86 NNW 3 6 30.06 1018 10 16 0.00 0.00

Powered by AerisWeather